Temperature
27 24 24 25 25 26 26 26 26 27 28 27 26 25 26 26 26 25 25 24 24 24 24 24 23 23 23 22 22 22 22 21 21 21 21 21 20 20 20 20 20 19 19 19
25 24 26 27 27 27 27 26 26 27 27 27 26 25 26 26 25 25 25 24 24 24 24 24 23 23 23 23 22 22 22 22 21 21 21 21 20 20 20 20 20 19 19 19
25 26 28 29 28 28 27 26 26 26 26 26 26 24 24 25 26 26 25 25 24 24 24 24 23 23 23 23 22 22 22 22 21 21 21 20 20 20 20 19 19 19 19 19
26 27 29 29 28 27 26 27 28 27 25 23 25 23 24 24 24 25 25 24 24 24 24 24 23 23 23 23 23 22 22 22 21 21 21 20 20 20 20 20 19 19 19 19
26 28 28 28 29 28 27 28 28 27 25 23 24 23 23 23 24 24 24 24 24 24 24 24 23 23 23 23 22 22 22 22 21 21 20 20 20 20 20 19 19 19 19 19
27 28 29 29 29 29 29 27 26 24 22 23 23 23 23 22 24 24 24 24 24 24 24 24 24 23 23 22 22 22 22 22 21 21 20 20 20 20 20 19 19 19 19 19
26 27 28 29 28 28 27 24 23 23 22 22 23 23 22 24 24 24 24 24 24 24 24 24 23 23 23 22 22 22 22 22 21 21 20 20 20 20 20 20 19 19 19 19
25 25 27 28 28 27 26 24 23 23 22 22 23 23 23 25 25 25 24 24 24 24 24 24 23 23 23 22 22 22 22 22 21 21 21 20 20 20 20 20 20 19 19 19
24 25 28 29 29 28 27 25 23 22 22 22 22 23 23 24 24 24 24 24 23 24 24 24 24 23 23 23 22 22 22 22 21 21 21 20 20 20 20 19 19 19 19 19
25 25 26 28 29 28 27 25 22 22 22 22 22 22 22 23 23 23 23 23 23 23 23 24 23 23 23 23 22 22 22 22 21 21 21 20 20 20 19 19 19 19 18 18
25 24 25 26 27 27 27 26 23 20 21 21 21 22 24 23 23 22 22 23 23 23 23 23 23 23 23 22 22 22 22 21 21 21 20 20 20 20 19 19 19 19 18 18
24 22 23 24 26 27 26 25 23 22 22 20 20 21 24 23 23 22 22 22 23 23 23 23 23 22 22 22 22 22 21 21 21 21 20 20 20 19 19 19 19 18 18 18
24 22 22 23 24 25 26 25 24 21 20 20 20 22 23 22 22 22 22 22 22 22 22 22 22 22 22 22 22 21 21 21 21 20 20 20 19 19 19 19 18 18 18 18
24 21 22 23 23 24 25 25 25 22 21 20 21 22 21 22 21 21 22 22 22 22 22 22 22 22 22 22 21 21 21 21 20 20 20 19 19 19 19 19 18 18 18 17
22 22 23 23 24 25 25 25 25 24 22 21 22 21 21 21 21 22 22 22 21 21 22 22 22 22 22 21 21 21 21 20 20 20 20 19 19 19 19 18 18 18 17 17
20 22 23 23 24 25 24 24 24 24 23 23 22 22 21 21 22 21 21 21 21 21 21 21 21 21 21 21 21 20 20 20 20 20 19 19 19 18 18 18 18 17 17 17
20 21 21 21 23 23 22 23 23 23 23 22 21 21 21 21 21 21 21 21 21 21 21 21 21 21 21 20 20 20 20 20 20 19 19 19 18 18 18 18 17 17 17 17
20 19 18 20 22 22 21 22 23 22 22 22 21 21 21 21 21 21 21 21 21 21 21 21 20 20 20 20 20 20 20 19 19 19 19 18 18 18 17 17 17 17 16 16
20 20 19 19 20 21 21 22 22 21 20 21 21 20 21 21 21 20 21 21 21 21 21 20 20 20 20 20 19 19 19 19 19 18 18 18 18 17 17 17 17 16 16 16
19 19 19 19 20 20 20 21 22 21 19 20 20 19 20 20 18 18 20 20 20 20 20 20 20 19 19 19 19 19 19 18 18 18 18 18 17 17 17 16 16 16 16 16
19 19 19 19 19 19 20 21 21 20 19 19 20 20 19 18 18 19 20 20 20 19 19 19 19 19 19 19 18 18 18 18 18 18 17 17 17 16 16 16 16 15 15 15
18 18 18 17 18 18 19 20 19 18 19 19 19 20 20 19 19 19 19 19 19 19 18 18 18 18 18 18 18 18 18 18 18 17 17 17 16 16 16 15 15 15 15 15
17 17 16 16 17 18 19 19 20 20 20 20 20 20 20 19 18 18 18 18 18 18 18 18 18 18 17 17 17 17 17 17 17 16 16 16 16 16 15 15 15 15 15 14
17 17 16 16 17 18 19 19 20 20 20 20 20 19 19 19 18 18 17 17 17 17 17 17 17 17 16 16 16 17 17 16 16 16 16 15 15 15 15 15 14 14 14 14
17 16 15 15 16 17 18 19 19 19 19 19 19 19 19 18 18 17 17 17 17 16 16 16 16 16 16 16 16 16 16 16 16 15 15 15 14 14 14 14 14 14 14 14
16 16 15 15 16 16 17 18 19 19 19 19 19 18 18 18 18 17 17 16 16 16 16 16 16 15 15 15 15 15 15 15 15 15 14 14 14 14 14 14 14 14 13 13
Wind_Speed
2 2 6 10 9 8 6 5 5 5 3 3 4 5 8 9 11 12 11 10 11 12 11 11 12 12 11 9 9 8 7 6 6 4 3 3 2 2 1 2 2 3 3 4
2 7 13 10 8 7 5 3 4 3 1 1 2 4 5 7 10 12 13 12 11 9 9 10 11 11 11 11 10 9 8 7 6 5 4 3 3 2 2 2 2 3 3 3
9 10 9 7 8 5 5 6 6 3 2 4 3 2 3 4 4 8 12 12 12 13 12 12 12 11 11 10 11 10 9 8 7 6 4 3 3 2 2 1 1 1 3 3
8 9 7 6 6 5 5 7 6 3 3 2 2 2 6 5 3 6 9 10 12 12 11 11 12 11 11 11 10 9 9 8 7 7 6 6 5 3 3 3 2 1 2 3
8 7 6 7 8 6 7 5 3 2 3 1 1 2 6 2 5 6 8 12 13 12 13 12 13 13 11 9 9 9 8 8 7 7 8 7 5 4 3 3 3 2 1 2
9 7 5 7 6 6 4 3 5 4 4 1 4 4 5 5 9 8 8 10 12 12 11 10 10 10 8 7 7 8 8 7 7 7 7 7 7 6 5 4 4 2 1 1
7 9 6 4 3 3 2 5 4 4 4 4 3 3 6 7 7 9 9 8 9 11 10 10 10 10 9 9 9 8 9 7 7 7 7 7 7 7 7 6 5 4 2 2
5 8 7 5 7 6 5 9 7 5 5 4 2 2 6 5 4 7 8 7 7 9 11 12 13 12 12 11 10 9 9 9 8 9 8 7 7 5 5 5 5 5 4 4
6 7 6 5 6 7 4 4 8 7 2 1 3 3 5 1 4 6 8 6 6 8 9 11 11 11 10 10 10 9 9 8 8 8 7 6 6 5 5 5 5 4 4 4
8 5 7 5 0 1 7 7 6 5 4 1 3 3 4 4 4 6 7 6 5 6 7 8 9 10 10 10 9 9 8 8 7 7 7 6 6 6 6 5 6 5 5 4
7 5 6 3 3 5 1 3 5 5 6 6 3 6 5 9 8 9 7 6 6 6 6 6 6 7 7 6 7 7 7 7 6 7 6 6 6 6 5 5 6 5 4 5
5 6 4 7 6 4 5 6 7 6 4 6 5 6 5 7 7 9 9 7 8 8 7 6 6 6 6 6 5 6 6 6 6 6 6 6 5 5 5 4 4 5 5 5
5 6 1 7 7 4 1 2 5 7 5 5 5 6 2 4 4 7 9 8 8 8 7 6 6 6 6 6 6 5 6 6 5 5 5 5 4 4 4 5 4 4 4 4
6 5 7 8 7 4 2 3 2 5 4 4 6 6 3 4 6 7 8 8 8 8 8 7 6 5 5 5 5 5 6 5 5 5 5 5 5 5 4 4 4 5 5 5
5 4 4 4 4 1 0 2 0 3 7 7 7 7 8 8 9 9 9 8 8 7 7 7 6 5 4 4 4 6 6 5 5 5 5 5 5 4 4 4 4 4 5 5
4 4 2 2 2 3 4 5 1 0 2 5 5 3 3 4 5 6 8 9 8 7 6 6 6 5 5 4 5 5 6 6 6 6 5 4 4 4 4 4 4 4 4 4
1 4 3 2 3 4 4 4 0 2 1 5 4 4 3 5 6 8 9 9 8 8 6 5 5 5 5 5 5 6 6 6 6 6 5 4 4 4 4 4 4 4 4 4
4 4 4 1 4 0 5 3 4 7 5 4 5 4 5 5 5 4 6 7 7 6 6 5 4 4 3 3 4 5 5 5 5 5 5 4 4 4 4 4 4 4 4 4
6 6 4 3 3 2 3 4 1 4 4 4 5 5 3 4 6 5 2 4 6 5 5 4 4 3 3 3 4 5 5 4 5 5 5 5 5 5 4 4 4 4 4 4
4 5 5 4 3 4 5 5 1 7 2 3 4 5 3 4 2 2 0 3 4 4 4 4 3 3 3 3 4 5 4 4 5 5 5 4 4 5 5 5 4 3 4 4
3 3 3 3 3 3 5 5 2 4 5 2 2 4 5 3 4 3 3 4 4 4 4 4 4 4 2 2 4 4 4 4 5 4 4 4 4 4 4 4 3 3 3 3
1 2 1 3 3 4 5 2 3 6 3 3 3 3 5 5 4 5 6 5 5 5 4 4 4 3 2 2 4 3 2 3 3 3 3 3 3 3 3 3 2 2 3 3
1 3 4 4 4 4 1 2 3 5 5 3 3 5 8 7 5 5 5 5 4 4 3 3 4 4 3 2 3 2 1 1 3 3 3 3 3 2 2 3 3 2 2 3
3 2 4 3 1 1 2 3 3 3 4 4 5 7 9 8 7 6 5 4 4 3 4 4 5 5 3 3 3 2 1 1 3 3 2 2 2 1 1 1 2 2 3 3
2 2 3 2 0 3 3 3 3 4 5 6 5 6 7 9 7 7 5 4 3 2 3 4 4 3 2 2 2 2 2 2 3 2 1 1 1 2 1 1 1 2 3 4
1 2 3 3 4 3 2 1 3 4 5 6 7 6 5 6 7 6 5 3 3 3 3 3 2 2 1 1 2 2 2 2 2 2 1 1 1 1 1 1 1 2 2 3
Wind_Direction
239 158 232 233 219 212 232 250 255 250 207 168 189 194 197 179 173 173 176 176 175 180 180 167 165 164 161 158 158 162 160 165 158 153 152 144 156 161 146 137 138 140 141 141
336 249 238 234 241 230 229 247 270 289 257 150 179 219 215 186 188 181 175 179 179 175 171 169 167 168 168 169 168 166 166 166 167 172 169 157 153 163 165 147 125 145 135 138
222 242 248 240 238 237 250 212 224 212 20 28 83 342 260 245 192 180 182 181 180 177 176 174 172 173 169 174 176 174 173 169 169 162 145 127 102 88 101 125 170 163 147 139
246 253 263 257 237 205 255 227 208 199 115 267 125 223 261 232 205 186 189 182 184 184 178 171 170 172 176 182 176 171 172 170 169 158 152 150 153 159 179 174 165 142 138 140
254 251 249 247 237 204 222 223 199 189 137 59 346 151 271 205 192 205 189 186 187 184 181 179 176 177 178 176 172 172 169 171 168 163 163 160 165 174 163 146 139 150 149 154
255 265 232 229 238 214 203 49 23 44 75 317 242 171 257 223 198 188 185 185 182 177 173 170 168 162 165 166 168 168 164 172 172 167 167 169 172 171 158 157 160 170 171 177
286 283 271 242 249 284 106 89 31 0 5 257 242 154 247 248 199 176 171 182 178 169 162 159 160 164 167 171 175 173 168 173 175 172 176 180 179 178 178 178 175 171 171 180
234 275 257 225 200 203 206 147 161 196 219 265 324 211 255 246 160 155 157 166 165 161 160 165 170 173 173 177 177 175 176 179 180 181 186 185 183 182 184 183 178 179 183 188
203 249 266 237 207 170 186 184 171 146 169 173 285 289 314 358 121 142 146 146 152 159 160 164 172 172 173 175 178 178 179 182 183 185 184 182 183 179 179 176 175 177 182 178
179 244 277 267 62 230 178 163 104 123 150 224 283 258 233 228 181 158 148 152 149 144 146 157 169 170 171 172 174 174 174 176 178 179 181 183 185 187 180 172 177 180 181 171
167 188 286 329 201 222 195 138 126 132 147 151 213 260 227 201 178 160 158 157 152 144 149 148 149 153 157 158 164 169 174 172 172 174 177 179 187 188 181 181 185 180 173 164
179 159 246 265 255 202 170 178 150 157 197 168 172 251 243 190 178 160 154 149 149 154 157 144 144 139 139 149 162 167 172 177 184 181 176 180 180 174 173 180 182 173 169 165
146 127 142 328 332 348 87 187 166 149 137 161 171 250 275 154 152 156 153 154 152 150 145 133 132 141 151 159 170 175 175 176 179 170 166 167 173 173 179 181 176 171 166 160
130 118 161 200 227 248 280 284 196 135 153 193 206 221 266 178 167 166 153 152 148 145 141 140 142 147 156 164 172 173 180 176 170 164 164 167 178 181 182 177 175 173 166 161
103 139 180 207 224 140 319 297 145 168 180 180 207 202 215 201 184 172 157 150 143 145 145 152 156 154 151 160 174 178 178 174 165 156 159 174 179 175 171 173 179 174 169 170
66 132 124 327 329 54 29 358 2 239 161 156 161 227 222 185 149 143 148 151 151 159 162 161 158 154 159 170 173 171 171 171 156 156 168 173 169 172 181 187 180 172 169 167
68 108 106 264 306 44 356 313 16 83 76 147 175 216 145 121 148 158 160 163 165 163 159 160 161 166 174 180 173 170 174 161 154 160 167 171 172 177 189 183 166 175 181 176
147 119 133 156 55 198 245 290 95 95 59 77 109 106 125 149 145 134 146 153 154 154 154 163 166 170 169 164 157 152 151 152 158 165 171 171 169 175 177 168 175 190 181 181
152 137 125 130 159 224 299 330 353 110 44 37 95 99 106 110 85 48 63 132 145 152 150 153 157 160 149 140 145 139 140 151 160 173 182 180 175 176 180 189 198 194 183 191
60 103 123 134 155 208 251 291 302 100 52 336 92 105 112 84 106 262 95 112 106 105 117 124 118 110 119 134 131 135 147 155 179 187 184 179 174 179 191 197 200 195 188 195
18 37 112 144 173 239 266 298 53 128 215 254 127 133 130 150 190 190 109 99 107 101 106 113 121 124 138 133 125 142 157 186 199 185 170 167 174 191 196 191 193 190 186 186
160 128 146 128 146 243 291 22 144 189 179 144 128 130 125 123 105 98 97 94 92 90 86 100 109 106 103 116 126 139 191 213 178 156 163 177 191 200 188 180 193 183 176 186
88 177 167 153 191 233 249 142 173 149 133 131 124 121 119 111 101 100 102 98 93 93 88 86 93 77 50 62 107 122 248 178 140 147 171 188 193 198 177 172 183 182 181 189
333 34 88 81 51 41 57 71 67 110 121 112 119 122 116 112 106 98 102 92 87 82 82 76 79 76 57 39 47 54 40 100 120 141 174 179 173 174 155 169 175 181 196 202
288 36 72 86 335 32 11 38 73 87 93 92 93 99 111 116 114 115 111 105 99 81 83 94 105 105 90 57 39 25 36 75 102 109 111 123 148 150 144 158 194 187 218 217
279 149 143 203 216 163 247 302 84 91 96 105 104 100 105 119 124 119 115 109 109 111 102 98 100 100 77 49 39 15 12 70 99 97 91 121 130 167 152 143 344 332 284 266
Height
1497 1504 1508 1503 1501 1502 1503 1507 1508 1501 1494 1499 1504 1505 1502 1502 1503 1505 1508 1510 1511 1513 1515 1518 1520 1522 1524 1525 1526 1528 1529 1531 1531 1532 1532 1533 1533 1534 1535 1535 1535 1535 1535 1535
1501 1504 1494 1492 1493 1496 1500 1508 1507 1500 1494 1499 1504 1504 1500 1500 1501 1502 1505 1508 1509 1512 1514 1516 1518 1520 1522 1523 1525 1526 1528 1529 1529 1530 1531 1532 1533 1534 1534 1535 1535 1535 1535 1535
1501 1493 1486 1489 1493 1496 1499 1504 1503 1504 1499 1500 1505 1512 1507 1501 1500 1502 1503 1505 1507 1509 1511 1514 1516 1518 1520 1522 1523 1524 1526 1527 1528 1529 1530 1531 1532 1533 1533 1533 1534 1534 1534 1534
1492 1485 1485 1488 1490 1493 1503 1491 1492 1496 1508 1518 1511 1529 1512 1503 1501 1501 1503 1504 1506 1507 1509 1511 1513 1516 1518 1519 1521 1523 1524 1525 1527 1528 1529 1530 1530 1530 1531 1532 1533 1533 1533 1533
1491 1482 1484 1487 1485 1485 1491 1484 1489 1495 1505 1517 1515 1524 1517 1504 1505 1501 1500 1501 1503 1504 1506 1508 1510 1513 1515 1518 1520 1521 1523 1524 1525 1526 1527 1528 1529 1530 1530 1531 1531 1532 1532 1532
1483 1477 1478 1479 1477 1479 1481 1488 1494 1502 1514 1530 1518 1522 1522 1507 1500 1498 1497 1499 1500 1501 1503 1506 1509 1511 1514 1517 1518 1520 1521 1522 1523 1524 1525 1526 1527 1528 1529 1529 1529 1530 1530 1531
1488 1480 1474 1474 1480 1481 1484 1505 1527 1531 1537 1533 1515 1519 1518 1496 1491 1492 1494 1496 1497 1499 1501 1504 1507 1509 1512 1514 1516 1518 1519 1520 1521 1522 1523 1524 1525 1526 1527 1527 1528 1528 1528 1529
1501 1498 1477 1472 1477 1484 1487 1500 1526 1538 1541 1532 1516 1520 1506 1488 1487 1490 1492 1494 1496 1498 1499 1502 1504 1507 1509 1511 1513 1515 1516 1517 1518 1520 1521 1522 1524 1524 1525 1526 1526 1526 1527 1527
1496 1494 1471 1466 1466 1473 1484 1494 1497 1517 1524 1532 1526 1514 1499 1488 1489 1490 1491 1493 1495 1496 1497 1500 1503 1505 1507 1509 1511 1512 1513 1515 1516 1518 1519 1520 1521 1522 1523 1523 1524 1525 1525 1525
1480 1490 1475 1466 1465 1467 1473 1482 1502 1517 1532 1539 1530 1521 1514 1498 1493 1489 1490 1492 1494 1495 1497 1499 1501 1503 1505 1507 1509 1510 1511 1512 1514 1515 1516 1517 1519 1520 1521 1522 1522 1523 1523 1524
1472 1487 1482 1474 1476 1477 1477 1484 1496 1511 1516 1533 1539 1525 1492 1490 1488 1488 1488 1489 1492 1494 1496 1498 1500 1502 1504 1506 1507 1508 1509 1510 1511 1512 1514 1515 1516 1517 1519 1519 1520 1521 1521 1522
1469 1483 1492 1482 1469 1464 1470 1478 1490 1508 1516 1518 1526 1518 1482 1483 1483 1484 1487 1489 1491 1494 1495 1496 1498 1500 1503 1504 1506 1507 1507 1508 1509 1510 1512 1513 1514 1515 1516 1517 1518 1519 1519 1519
1467 1484 1501 1497 1487 1473 1473 1474 1479 1490 1505 1516 1522 1511 1481 1481 1483 1485 1486 1488 1491 1492 1493 1495 1497 1499 1500 1501 1503 1505 1506 1506 1508 1509 1510 1511 1512 1513 1514 1515 1516 1516 1517 1517
1460 1480 1493 1501 1494 1481 1478 1475 1475 1487 1504 1510 1506 1499 1488 1484 1484 1485 1486 1488 1489 1491 1492 1493 1495 1496 1498 1499 1501 1502 1504 1505 1506 1507 1508 1509 1510 1511 1512 1513 1513 1514 1514 1514
1461 1478 1478 1478 1474 1472 1474 1474 1474 1480 1487 1496 1494 1491 1485 1481 1481 1482 1484 1487 1489 1490 1491 1492 1493 1495 1496 1498 1499 1501 1502 1503 1504 1505 1505 1506 1507 1508 1509 1510 1511 1511 1511 1512
1465 1474 1475 1477 1472 1472 1476 1475 1473 1476 1478 1482 1484 1486 1478 1478 1480 1482 1484 1485 1487 1489 1490 1491 1492 1493 1495 1496 1497 1498 1500 1501 1502 1503 1503 1504 1505 1506 1506 1507 1507 1508 1509 1509
1470 1475 1483 1488 1477 1477 1490 1480 1476 1478 1476 1478 1485 1483 1478 1479 1481 1482 1483 1484 1485 1487 1489 1490 1491 1492 1493 1494 1495 1496 1497 1498 1499 1500 1501 1502 1503 1503 1503 1504 1504 1505 1506 1506
1468 1476 1486 1489 1487 1501 1491 1473 1471 1476 1477 1475 1476 1477 1478 1479 1480 1481 1482 1483 1484 1486 1488 1489 1491 1491 1492 1493 1493 1494 1495 1496 1497 1497 1499 1500 1500 1501 1501 1501 1502 1502 1503 1503
1460 1471 1485 1494 1497 1495 1484 1476 1475 1478 1484 1478 1477 1478 1479 1479 1481 1483 1484 1483 1484 1485 1486 1488 1489 1490 1490 1491 1491 1492 1493 1494 1494 1495 1496 1497 1497 1498 1498 1499 1499 1500 1500 1501
1461 1466 1480 1490 1496 1501 1489 1475 1472 1476 1489 1480 1478 1479 1479 1480 1486 1486 1483 1483 1484 1485 1485 1486 1487 1488 1488 1489 1490 1490 1490 1491 1492 1492 1493 1494 1495 1496 1496 1496 1497 1497 1498 1498
1474 1477 1483 1489 1495 1493 1479 1472 1472 1489 1490 1480 1478 1478 1478 1480 1482 1482 1481 1482 1483 1484 1484 1485 1486 1487 1487 1488 1488 1488 1488 1488 1489 1490 1491 1491 1492 1493 1493 1494 1494 1494 1495 1495
1480 1484 1486 1489 1496 1496 1475 1473 1478 1480 1476 1477 1477 1476 1477 1478 1479 1479 1480 1481 1482 1482 1483 1484 1484 1485 1485 1486 1486 1486 1486 1486 1486 1487 1488 1489 1489 1490 1491 1491 1491 1492 1493 1493
1478 1479 1481 1484 1488 1479 1474 1474 1474 1473 1474 1475 1476 1476 1476 1477 1479 1479 1480 1481 1482 1483 1483 1484 1484 1483 1484 1484 1484 1484 1484 1484 1484 1485 1485 1486 1486 1487 1488 1488 1488 1489 1490 1490
1475 1473 1477 1481 1480 1477 1476 1475 1475 1475 1474 1475 1475 1476 1476 1478 1479 1479 1480 1481 1483 1483 1483 1483 1483 1483 1483 1483 1482 1482 1482 1482 1482 1482 1482 1483 1483 1484 1484 1485 1485 1485 1486 1487
1477 1475 1478 1481 1479 1477 1477 1476 1476 1476 1476 1476 1477 1478 1478 1478 1479 1480 1481 1482 1483 1483 1483 1483 1483 1483 1482 1482 1481 1481 1480 1480 1479 1479 1480 1480 1481 1480 1481 1481 1481 1481 1482 1483
1475 1477 1480 1482 1478 1478 1478 1477 1477 1477 1477 1477 1477 1478 1480 1479 1480 1480 1481 1482 1482 1483 1483 1483 1482 1482 1481 1481 1480 1480 1478 1478 1477 1477 1477 1478 1478 1478 1477 1478 1478 1478 1479 1479